NOAA 16 DEB, 42425

Orbit data source: Space-Track

NOAA 16 DEB, 42425 is space debris in SSO originally from a launch on Thu, 21 Sep 2000 UTC launched from the Air Force Western Test Range (AFWTR). Debris objects in space refer to the collection of defunct objects orbiting the Earth. Examples of debris include non-operational satellites, rocket bodies, and fragments generated from explosions, collisions, or faulty payload assembly.

Loading next visibility...
Identifier
42425, 2000-055TV
Orbit
SSO
Country
Flag of USUS
Related business
Manufacturer
Unknown
Mission
Spacecraft
Bus & Motor
Unknown
Mass
Unknown
Launch date (UTC)
2000-09-21 (26 years ago)
Launch vehicle
Unknown
Launch site
Air Force Western Test Range (AFWTR)
Object type
Payload
Rocket body
Debris
Shape & HBR
Unknown shape, 0.1 m
Radar Cross Section
Small (<0.1 m²)

Expand to show TLE details & history
Last TLE update: 1 day ago

TLE from 1 day ago
0 NOAA 16 DEB
1 42425U 00055TV  26123.57609395  .00002586  00000-0  12550-2 0  9991
2 42425  98.6957 161.6554 0022331 341.9812  18.0570 14.19066574500414
Epoch: 2026-05-03T13:49Z
TLE epoch observation values (Epoch: 2026-05-03T13:49:34.517Z)
Latitude
-0.00003°
Longitude
92.78392°
Altitude
816.125 km
Speed
7.453 km/s
True Right ascension
10h 46m 37s
True Declination
0° 00' 00"
Sunlit
Object was in full shadow at epoch
Visualization orbit readout
Latitude
Unknown
Longitude
Unknown
Altitude
Unknown
Speed
Unknown
Apparent Right ascension
Unknown
Apparent Declination
Unknown
Sunlit
N/A
Visualization observer readout
Local Sidereal Time
02:01:13
Azimuth
Unknown
Elevation
Unknown
Doppler factor
Unknown
Orbital elements
Apogee altitude
841.757 km
Perigee altitude
809.584 km
Semi-major axis
7,203.807 km
Eccentricity
0.00223
Inclination
98.6957°
RAAN
161.6554°
Arg. of periapsis
341.9812°
True anomaly
18.13653°
Mean anomaly
18.057°
Eccentric anomaly
18.09674°
Mean motion
3.54977 °/min
Orbital period
101.42 mins
BSTAR
0.001255
Loading maneuver chart data...
Computing Atmospheric mass density...
Loading historical data...
Loading historical data...
Loading historical data...
Loading historical data...
Loading historical data...
Loading historical data...
Loading historical data...

Documentation

Showing up to 5 results
|